Time,TemperatureF,DewpointF,PressureIn,WindDirection,WindDirectionDegrees,WindSpeedMPH,WindSpeedGustMPH,Humidity,HourlyPrecipIn,Conditions,Clouds,dailyrainin,SolarRadiationWatts/m^2,SoftwareType,DateUTC
2013-04-05 00:02:00,30.0,18.0,-100.00,NW,306,3.0,8.0,61,0.00,,,0.00,0.000000,,2013-04-05 04:02:00,
2013-04-05 00:12:00,29.0,18.0,-100.00,North,357,4.0,12.0,63,0.00,,,0.00,0.000000,,2013-04-05 04:12:00,
2013-04-05 00:42:00,29.0,18.0,-100.00,North,357,4.0,12.0,63,0.00,,,0.00,0.000000,,2013-04-05 04:42:00,
2013-04-05 00:52:00,29.0,18.0,-100.00,North,357,4.0,12.0,63,0.00,,,0.00,0.000000,,2013-04-05 04:52:00,
2013-04-05 01:02:00,29.0,18.0,-100.00,North,357,4.0,12.0,63,0.00,,,0.00,0.000000,,2013-04-05 05:02:00,
2013-04-05 01:12:00,28.0,19.0,-100.00,North,359,4.0,9.0,68,0.00,,,0.00,0.000000,,2013-04-05 05:12:00,
2013-04-05 01:42:00,28.0,19.0,-100.00,North,359,4.0,9.0,68,0.00,,,0.00,0.000000,,2013-04-05 05:42:00,
2013-04-05 01:52:00,28.0,19.0,-100.00,North,359,4.0,9.0,68,0.00,,,0.00,0.000000,,2013-04-05 05:52:00,
2013-04-05 02:02:00,28.0,19.0,-100.00,North,359,4.0,9.0,68,0.00,,,0.00,0.000000,,2013-04-05 06:02:00,
2013-04-05 03:12:00,27.0,16.0,-100.00,North,352,6.0,14.0,62,-99.99,,,0.00,0.000000,,2013-04-05 07:12:00,
2013-04-05 03:42:00,27.0,16.0,-100.00,North,352,6.0,14.0,62,-99.99,,,0.00,0.000000,,2013-04-05 07:42:00,
2013-04-05 03:53:00,27.0,16.0,-100.00,North,352,6.0,14.0,62,-99.99,,,0.00,0.000000,,2013-04-05 07:53:00,
2013-04-05 04:02:00,27.0,16.0,-100.00,North,352,6.0,14.0,62,-99.99,,,0.00,0.000000,,2013-04-05 08:02:00,
2013-04-05 04:12:00,26.0,15.0,-100.00,North,352,4.0,13.0,62,0.00,,,0.00,0.000000,,2013-04-05 08:12:00,
2013-04-05 04:43:00,26.0,15.0,-100.00,North,352,4.0,13.0,62,0.00,,,0.00,0.000000,,2013-04-05 08:43:00,
2013-04-05 04:52:00,26.0,15.0,-100.00,North,352,4.0,13.0,62,0.00,,,0.00,0.000000,,2013-04-05 08:52:00,
2013-04-05 05:02:00,26.0,15.0,-100.00,North,352,4.0,13.0,62,0.00,,,0.00,0.000000,,2013-04-05 09:02:00,
2013-04-05 05:12:00,26.0,14.0,-100.00,North,352,6.0,14.0,59,0.00,,,0.00,0.000000,,2013-04-05 09:12:00,
2013-04-05 05:43:00,26.0,14.0,-100.00,North,352,6.0,14.0,59,0.00,,,0.00,0.000000,,2013-04-05 09:43:00,
2013-04-05 05:53:00,26.0,14.0,-100.00,North,352,6.0,14.0,59,0.00,,,0.00,0.000000,,2013-04-05 09:53:00,
2013-04-05 06:03:00,26.0,14.0,-100.00,North,352,6.0,14.0,59,0.00,,,0.00,0.000000,,2013-04-05 10:03:00,
2013-04-05 06:12:00,25.0,13.0,-100.00,NNW,346,5.0,14.0,60,0.00,,,0.00,0.000000,,2013-04-05 10:12:00,
2013-04-05 06:33:00,25.0,13.0,-100.00,NNW,346,5.0,14.0,60,0.00,,,0.00,0.000000,,2013-04-05 10:33:00,
2013-04-05 06:43:00,25.0,13.0,-100.00,NNW,346,5.0,14.0,60,0.00,,,0.00,0.000000,,2013-04-05 10:43:00,
2013-04-05 06:53:00,25.0,13.0,-100.00,NNW,346,5.0,14.0,60,0.00,,,0.00,0.000000,,2013-04-05 10:53:00,
2013-04-05 07:02:00,25.0,13.0,-100.00,NNW,346,5.0,14.0,60,0.00,,,0.00,0.000000,,2013-04-05 11:02:00,
2013-04-05 07:12:00,24.0,12.0,-100.00,NNW,338,5.0,15.0,59,0.00,,,0.00,0.000000,,2013-04-05 11:12:00,
2013-04-05 07:33:00,24.0,12.0,-100.00,NNW,338,5.0,15.0,59,0.00,,,0.00,0.000000,,2013-04-05 11:33:00,
2013-04-05 07:42:00,24.0,12.0,-100.00,NNW,338,5.0,15.0,59,0.00,,,0.00,0.000000,,2013-04-05 11:42:00,
2013-04-05 07:52:00,24.0,12.0,-100.00,NNW,338,5.0,15.0,59,0.00,,,0.00,0.000000,,2013-04-05 11:52:00,
2013-04-05 08:02:00,24.0,12.0,-100.00,NNW,338,5.0,15.0,59,0.00,,,0.00,0.000000,,2013-04-05 12:02:00,
2013-04-05 09:12:00,27.0,12.0,-100.00,North,353,5.0,12.0,53,-99.99,,,0.00,177.000000,,2013-04-05 13:12:00,
2013-04-05 09:42:00,27.0,12.0,-100.00,North,353,5.0,12.0,53,-99.99,,,0.00,177.000000,,2013-04-05 13:42:00,
2013-04-05 09:52:00,27.0,12.0,-100.00,North,353,5.0,12.0,53,-99.99,,,0.00,177.000000,,2013-04-05 13:52:00,
2013-04-05 10:03:00,27.0,12.0,-100.00,North,353,5.0,12.0,53,-99.99,,,0.00,177.000000,,2013-04-05 14:03:00,
2013-04-05 10:12:00,29.0,12.0,-100.00,North,10,5.0,19.0,49,0.00,,,0.00,404.000000,,2013-04-05 14:12:00,
2013-04-05 10:43:00,29.0,12.0,-100.00,North,10,5.0,19.0,49,0.00,,,0.00,404.000000,,2013-04-05 14:43:00,
2013-04-05 10:54:00,29.0,12.0,-100.00,North,10,5.0,19.0,49,0.00,,,0.00,404.000000,,2013-04-05 14:54:00,
2013-04-05 11:02:00,29.0,12.0,-100.00,North,10,5.0,19.0,49,0.00,,,0.00,404.000000,,2013-04-05 15:02:00,
2013-04-05 11:12:00,32.0,13.0,-100.00,NW,325,6.0,13.0,45,0.00,,,0.00,629.000000,,2013-04-05 15:12:00,
2013-04-05 11:34:00,32.0,13.0,-100.00,NW,325,6.0,13.0,45,0.00,,,0.00,629.000000,,2013-04-05 15:34:00,
2013-04-05 11:43:00,32.0,13.0,-100.00,NW,325,6.0,13.0,45,0.00,,,0.00,629.000000,,2013-04-05 15:43:00,
2013-04-05 11:54:00,32.0,13.0,-100.00,NW,325,6.0,13.0,45,0.00,,,0.00,629.000000,,2013-04-05 15:54:00,
2013-04-05 12:02:00,32.0,13.0,-100.00,NW,325,6.0,13.0,45,0.00,,,0.00,629.000000,,2013-04-05 16:02:00,
2013-04-05 12:12:00,35.0,14.0,-100.00,NNE,31,4.0,14.0,41,0.00,,,0.00,812.000000,,2013-04-05 16:12:00,
2013-04-05 12:33:00,35.0,14.0,-100.00,NNE,31,4.0,14.0,41,0.00,,,0.00,812.000000,,2013-04-05 16:33:00,
2013-04-05 12:43:00,35.0,14.0,-100.00,NNE,31,4.0,14.0,41,0.00,,,0.00,812.000000,,2013-04-05 16:43:00,
2013-04-05 12:53:00,35.0,14.0,-100.00,NNE,31,4.0,14.0,41,0.00,,,0.00,812.000000,,2013-04-05 16:53:00,
2013-04-05 13:03:00,35.0,14.0,-100.00,NNE,31,4.0,14.0,41,0.00,,,0.00,812.000000,,2013-04-05 17:03:00,
2013-04-05 13:12:00,34.0,10.0,-100.00,NNW,330,6.0,11.0,36,0.00,,,0.00,844.000000,,2013-04-05 17:12:00,
2013-04-05 13:33:00,34.0,10.0,-100.00,NNW,330,6.0,11.0,36,0.00,,,0.00,844.000000,,2013-04-05 17:33:00,
2013-04-05 13:45:00,34.0,10.0,-100.00,NNW,330,6.0,11.0,36,0.00,,,0.00,844.000000,,2013-04-05 17:45:00,
2013-04-05 13:52:00,34.0,10.0,-100.00,NNW,330,6.0,11.0,36,0.00,,,0.00,844.000000,,2013-04-05 17:52:00,
2013-04-05 14:02:00,34.0,10.0,-100.00,NNW,330,6.0,11.0,36,0.00,,,0.00,844.000000,,2013-04-05 18:02:00,
2013-04-05 14:12:00,37.0,11.0,-100.00,North,351,4.0,12.0,34,0.00,,,0.00,903.000000,,2013-04-05 18:12:00,
2013-04-05 14:43:00,37.0,11.0,-100.00,North,351,4.0,12.0,34,0.00,,,0.00,903.000000,,2013-04-05 18:43:00,
2013-04-05 14:53:00,37.0,11.0,-100.00,North,351,4.0,12.0,34,0.00,,,0.00,903.000000,,2013-04-05 18:53:00,
2013-04-05 15:02:00,37.0,11.0,-100.00,North,351,4.0,12.0,34,0.00,,,0.00,903.000000,,2013-04-05 19:02:00,
2013-04-05 15:43:00,35.0,14.0,-100.00,East,86,5.0,11.0,42,0.00,,,0.00,769.000000,,2013-04-05 19:43:00,
2013-04-05 15:53:00,35.0,14.0,-100.00,East,86,5.0,11.0,42,0.00,,,0.00,769.000000,,2013-04-05 19:53:00,
2013-04-05 16:02:00,35.0,14.0,-100.00,East,86,5.0,11.0,42,0.00,,,0.00,769.000000,,2013-04-05 20:02:00,
2013-04-05 16:11:00,35.0,14.0,-100.00,East,86,5.0,11.0,42,0.00,,,0.00,769.000000,,2013-04-05 20:11:00,
2013-04-05 16:12:00,35.0,14.0,-100.00,East,79,6.0,12.0,42,0.00,,,0.00,775.000000,,2013-04-05 20:12:00,
2013-04-05 16:33:00,35.0,14.0,-100.00,East,79,6.0,12.0,42,0.00,,,0.00,775.000000,,2013-04-05 20:33:00,
2013-04-05 16:43:00,35.0,14.0,-100.00,East,79,6.0,12.0,42,0.00,,,0.00,775.000000,,2013-04-05 20:43:00,
2013-04-05 16:52:00,35.0,14.0,-100.00,East,79,6.0,12.0,42,0.00,,,0.00,775.000000,,2013-04-05 20:52:00,
2013-04-05 17:02:00,35.0,14.0,-100.00,East,79,6.0,12.0,42,0.00,,,0.00,775.000000,,2013-04-05 21:02:00,
2013-04-05 17:12:00,35.0,15.0,-100.00,ENE,77,6.0,12.0,44,0.00,,,0.00,580.000000,,2013-04-05 21:12:00,
2013-04-05 17:44:00,35.0,15.0,-100.00,ENE,77,6.0,12.0,44,0.00,,,0.00,580.000000,,2013-04-05 21:44:00,
2013-04-05 17:55:00,35.0,15.0,-100.00,ENE,77,6.0,12.0,44,0.00,,,0.00,580.000000,,2013-04-05 21:55:00,
2013-04-05 18:03:00,35.0,15.0,-100.00,ENE,77,6.0,12.0,44,0.00,,,0.00,580.000000,,2013-04-05 22:03:00,
2013-04-05 18:12:00,33.0,15.0,-100.00,ENE,57,4.0,12.0,47,0.00,,,0.00,358.000000,,2013-04-05 22:12:00,
2013-04-05 18:44:00,33.0,15.0,-100.00,ENE,57,4.0,12.0,47,0.00,,,0.00,358.000000,,2013-04-05 22:44:00,
2013-04-05 18:53:00,33.0,15.0,-100.00,ENE,57,4.0,12.0,47,0.00,,,0.00,358.000000,,2013-04-05 22:53:00,
2013-04-05 19:02:00,33.0,15.0,-100.00,ENE,57,4.0,12.0,47,0.00,,,0.00,358.000000,,2013-04-05 23:02:00,
2013-04-05 19:12:00,30.0,14.0,-100.00,ENE,58,3.0,9.0,51,0.00,,,0.00,155.000000,,2013-04-05 23:12:00,
2013-04-05 19:43:00,30.0,14.0,-100.00,ENE,58,3.0,9.0,51,0.00,,,0.00,155.000000,,2013-04-05 23:43:00,
2013-04-05 19:53:00,30.0,14.0,-100.00,ENE,58,3.0,9.0,51,0.00,,,0.00,155.000000,,2013-04-05 23:53:00,
2013-04-05 20:02:00,30.0,14.0,-100.00,ENE,58,3.0,9.0,51,0.00,,,0.00,155.000000,,2013-04-06 00:02:00,
2013-04-05 21:12:00,27.0,13.0,-100.00,ENE,74,3.0,6.0,54,-99.99,,,0.00,2.000000,,2013-04-06 01:12:00,
2013-04-05 21:33:00,27.0,13.0,-100.00,ENE,74,3.0,6.0,54,-99.99,,,0.00,2.000000,,2013-04-06 01:33:00,
2013-04-05 21:43:00,27.0,13.0,-100.00,ENE,74,3.0,6.0,54,-99.99,,,0.00,2.000000,,2013-04-06 01:43:00,
2013-04-05 21:53:00,27.0,13.0,-100.00,ENE,74,3.0,6.0,54,-99.99,,,0.00,2.000000,,2013-04-06 01:53:00,
2013-04-05 22:02:00,27.0,13.0,-100.00,ENE,74,3.0,6.0,54,-99.99,,,0.00,2.000000,,2013-04-06 02:02:00,
2013-04-05 22:12:00,26.0,13.0,-100.00,East,95,2.0,6.0,58,0.00,,,0.00,0.000000,,2013-04-06 02:12:00,
2013-04-05 22:43:00,26.0,13.0,-100.00,East,95,2.0,6.0,58,0.00,,,0.00,0.000000,,2013-04-06 02:43:00,
2013-04-05 22:52:00,26.0,13.0,-100.00,East,95,2.0,6.0,58,0.00,,,0.00,0.000000,,2013-04-06 02:52:00,
2013-04-05 23:02:00,26.0,13.0,-100.00,East,95,2.0,6.0,58,0.00,,,0.00,0.000000,,2013-04-06 03:02:00,
2013-04-05 23:43:00,25.0,14.0,-100.00,East,96,2.0,3.0,63,0.00,,,0.00,0.000000,,2013-04-06 03:43:00,
2013-04-05 23:54:00,25.0,14.0,-100.00,East,96,2.0,3.0,63,0.00,,,0.00,0.000000,,2013-04-06 03:54:00,